Saint Bonnet de Bellac- Haute Vienne - France
Donnes mto: vendredi, 31/08/2012
Date Horaire Temp. E. Hum. E. P.atmo. Pluie Vent Direction Direction Ensoleilleme Solaire P. de rose Temp au vent Rafales
31/08/2012 00:00 15,6 C 68 % 1024,1 hPa 0,0 mm 0,0 km/h (0 Bft) O 270 0 min 0 W/m 9,7 C 15,6 C 0,0 km/h (0 Bft)
31/08/2012 00:10 15,5 C 68 % 1024,2 hPa 0,0 mm 0,0 km/h (0 Bft) S-SO 202 0 min 0 W/m 9,6 C 15,5 C 0,0 km/h (0 Bft)
31/08/2012 00:20 15,3 C 69 % 1024,2 hPa 0,0 mm 0,7 km/h (0 Bft) S-SO 202 0 min 0 W/m 9,6 C 15,3 C 3,2 km/h (1 Bft)
31/08/2012 00:30 14,9 C 69 % 1024,4 hPa 0,0 mm 0,0 km/h (0 Bft) O-SO 247 0 min 0 W/m 9,3 C 14,9 C 0,0 km/h (0 Bft)
31/08/2012 00:40 14,6 C 70 % 1024,4 hPa 0,0 mm 0,0 km/h (0 Bft) O-SO 247 0 min 0 W/m 9,2 C 14,6 C 0,0 km/h (0 Bft)
31/08/2012 00:50 14,4 C 70 % 1024,4 hPa 0,0 mm 0,0 km/h (0 Bft) SO 225 0 min 0 W/m 9,0 C 14,4 C 0,0 km/h (0 Bft)
31/08/2012 01:00 14,0 C 71 % 1024,4 hPa 0,0 mm 0,0 km/h (0 Bft) SO 225 0 min 0 W/m 8,8 C 14,0 C 0,0 km/h (0 Bft)
31/08/2012 01:10 13,7 C 72 % 1024,4 hPa 0,0 mm 0,0 km/h (0 Bft) O-SO 247 0 min 0 W/m 8,7 C 13,7 C 0,0 km/h (0 Bft)
31/08/2012 01:20 13,3 C 72 % 1024,6 hPa 0,0 mm 0,0 km/h (0 Bft) O-SO 247 0 min 0 W/m 8,4 C 13,3 C 0,0 km/h (0 Bft)
31/08/2012 01:30 12,9 C 74 % 1024,6 hPa 0,0 mm 0,0 km/h (0 Bft) O-NO 292 0 min 0 W/m 8,4 C 12,9 C 1,4 km/h (1 Bft)
31/08/2012 01:40 12,8 C 75 % 1024,7 hPa 0,0 mm 0,4 km/h (0 Bft) O-NO 292 0 min 0 W/m 8,5 C 12,8 C 0,4 km/h (0 Bft)
31/08/2012 01:50 12,6 C 75 % 1024,7 hPa 0,0 mm 0,0 km/h (0 Bft) O-NO 292 0 min 0 W/m 8,3 C 12,6 C 0,0 km/h (0 Bft)
31/08/2012 02:00 12,4 C 76 % 1024,8 hPa 0,0 mm 0,4 km/h (0 Bft) NO 315 0 min 0 W/m 8,3 C 12,4 C 0,4 km/h (0 Bft)
31/08/2012 02:10 12,3 C 77 % 1024,8 hPa 0,0 mm 0,7 km/h (0 Bft) O-NO 292 0 min 0 W/m 8,4 C 12,3 C 4,3 km/h (1 Bft)
31/08/2012 02:20 12,3 C 78 % 1024,9 hPa 0,0 mm 3,2 km/h (1 Bft) N-NO 337 0 min 0 W/m 8,6 C 12,3 C 11,5 km/h (2 Bft)
31/08/2012 02:30 12,3 C 78 % 1025,0 hPa 0,0 mm 0,0 km/h (0 Bft) NO 315 0 min 0 W/m 8,6 C 12,3 C 0,0 km/h (0 Bft)
31/08/2012 02:40 12,1 C 78 % 1025,0 hPa 0,0 mm 1,4 km/h (1 Bft) NO 315 0 min 0 W/m 8,4 C 12,1 C 6,5 km/h (2 Bft)
31/08/2012 02:50 11,9 C 79 % 1025,0 hPa 0,0 mm 0,0 km/h (0 Bft) NO 315 0 min 0 W/m 8,4 C 11,9 C 1,4 km/h (1 Bft)
31/08/2012 03:02 11,8 C 79 % 1024,9 hPa 0,0 mm 0,0 km/h (0 Bft) NO 315 0 min 0 W/m 8,3 C 11,8 C 0,0 km/h (0 Bft)
31/08/2012 03:10 11,6 C 80 % 1024,9 hPa 0,0 mm 0,0 km/h (0 Bft) NO 315 0 min 0 W/m 8,3 C 11,6 C 0,0 km/h (0 Bft)
31/08/2012 03:20 11,4 C 80 % 1025,0 hPa 0,0 mm 0,0 km/h (0 Bft) O-NO 292 0 min 0 W/m 8,1 C 11,4 C 0,0 km/h (0 Bft)
31/08/2012 03:30 11,4 C 81 % 1025,0 hPa 0,0 mm 1,4 km/h (1 Bft) N-NO 337 0 min 0 W/m 8,3 C 11,4 C 4,0 km/h (1 Bft)
31/08/2012 03:40 11,4 C 82 % 1025,0 hPa 0,0 mm 0,7 km/h (0 Bft) O-NO 292 0 min 0 W/m 8,4 C 11,4 C 4,0 km/h (1 Bft)
31/08/2012 03:50 11,5 C 82 % 1025,0 hPa 0,0 mm 0,0 km/h (0 Bft) NO 315 0 min 0 W/m 8,5 C 11,5 C 0,0 km/h (0 Bft)
31/08/2012 04:00 11,5 C 82 % 1025,1 hPa 0,0 mm 0,0 km/h (0 Bft) O-NO 292 0 min 0 W/m 8,5 C 11,5 C 0,0 km/h (0 Bft)
31/08/2012 04:10 11,6 C 82 % 1025,1 hPa 0,0 mm 0,7 km/h (0 Bft) O-SO 247 0 min 0 W/m 8,6 C 11,6 C 3,2 km/h (1 Bft)
31/08/2012 04:20 11,6 C 83 % 1025,2 hPa 0,0 mm 1,1 km/h (1 Bft) N 360 0 min 0 W/m 8,8 C 11,6 C 3,6 km/h (1 Bft)
31/08/2012 04:30 11,8 C 83 % 1025,2 hPa 0,0 mm 1,8 km/h (1 Bft) NO 315 0 min 0 W/m 9,0 C 11,8 C 4,3 km/h (1 Bft)
31/08/2012 04:40 11,8 C 83 % 1025,2 hPa 0,0 mm 0,0 km/h (0 Bft) N-NO 337 0 min 0 W/m 9,0 C 11,8 C 0,0 km/h (0 Bft)
31/08/2012 04:50 11,8 C 83 % 1025,2 hPa 0,0 mm 1,1 km/h (1 Bft) N-NO 337 0 min 0 W/m 9,0 C 11,8 C 1,1 km/h (1 Bft)
31/08/2012 05:00 11,8 C 83 % 1025,2 hPa 0,0 mm 2,9 km/h (1 Bft) NO 315 0 min 0 W/m 9,0 C 11,8 C 2,9 km/h (1 Bft)
31/08/2012 05:10 11,8 C 83 % 1025,2 hPa 0,0 mm 1,8 km/h (1 Bft) N-NO 337 0 min 0 W/m 9,0 C 11,8 C 4,3 km/h (1 Bft)
31/08/2012 05:20 11,6 C 83 % 1025,2 hPa 0,0 mm 0,0 km/h (0 Bft) O-NO 292 0 min 0 W/m 8,8 C 11,6 C 0,0 km/h (0 Bft)
31/08/2012 05:30 11,6 C 83 % 1025,2 hPa 0,0 mm 1,1 km/h (1 Bft) N-NO 337 0 min 0 W/m 8,8 C 11,6 C 1,1 km/h (1 Bft)
31/08/2012 05:40 11,5 C 83 % 1025,2 hPa 0,0 mm 0,0 km/h (0 Bft) N-NO 337 0 min 0 W/m 8,7 C 11,5 C 0,0 km/h (0 Bft)
31/08/2012 05:50 11,3 C 83 % 1025,2 hPa 0,0 mm 0,0 km/h (0 Bft) NO 315 0 min 0 W/m 8,5 C 11,3 C 0,0 km/h (0 Bft)
31/08/2012 06:00 11,1 C 83 % 1025,3 hPa 0,0 mm 0,0 km/h (0 Bft) NO 315 0 min 0 W/m 8,3 C 11,1 C 0,0 km/h (0 Bft)
31/08/2012 06:10 10,9 C 84 % 1025,3 hPa 0,0 mm 0,0 km/h (0 Bft) N 360 0 min 0 W/m 8,3 C 10,9 C 0,0 km/h (0 Bft)
31/08/2012 06:20 10,8 C 84 % 1025,3 hPa 0,0 mm 0,0 km/h (0 Bft) NO 315 0 min 0 W/m 8,2 C 10,8 C 2,9 km/h (1 Bft)
31/08/2012 06:30 10,5 C 84 % 1025,4 hPa 0,0 mm 0,4 km/h (0 Bft) NO 315 0 min 0 W/m 7,9 C 10,5 C 3,2 km/h (1 Bft)
31/08/2012 06:40 10,3 C 84 % 1025,5 hPa 0,0 mm 0,0 km/h (0 Bft) NO 315 0 min 0 W/m 7,7 C 10,3 C 0,0 km/h (0 Bft)
31/08/2012 06:50 10,0 C 84 % 1025,4 hPa 0,0 mm 0,0 km/h (0 Bft) O-NO 292 0 min 0 W/m 7,4 C 10,0 C 0,0 km/h (0 Bft)
31/08/2012 07:00 9,8 C 85 % 1025,6 hPa 0,0 mm 0,0 km/h (0 Bft) O 270 0 min 0 W/m 7,4 C 9,8 C 0,0 km/h (0 Bft)
31/08/2012 07:10 9,6 C 86 % 1025,6 hPa 0,0 mm 0,0 km/h (0 Bft) SO 225 0 min 0 W/m 7,4 C 9,6 C 0,0 km/h (0 Bft)
31/08/2012 07:20 9,4 C 86 % 1025,6 hPa 0,0 mm 0,0 km/h (0 Bft) O 270 0 min 0 W/m 7,2 C 9,4 C 0,0 km/h (0 Bft)
31/08/2012 07:30 9,3 C 87 % 1025,6 hPa 0,0 mm 0,0 km/h (0 Bft) N-NO 337 0 min 0 W/m 7,2 C 9,3 C 1,4 km/h (1 Bft)
31/08/2012 07:40 9,3 C 87 % 1025,7 hPa 0,0 mm 0,0 km/h (0 Bft) NO 315 0 min 0 W/m 7,2 C 9,3 C 0,0 km/h (0 Bft)
31/08/2012 07:50 9,6 C 87 % 1025,9 hPa 0,0 mm 0,7 km/h (0 Bft) N-NO 337 0 min 0 W/m 7,5 C 9,6 C 3,2 km/h (1 Bft)
31/08/2012 08:00 9,9 C 87 % 1026,0 hPa 0,0 mm 2,5 km/h (1 Bft) NO 315 0 min 0 W/m 7,8 C 9,9 C 4,0 km/h (1 Bft)
31/08/2012 08:10 10,1 C 87 % 1026,1 hPa 0,0 mm 3,6 km/h (1 Bft) N-NO 337 0 min 0 W/m 8,0 C 10,1 C 8,6 km/h (2 Bft)
31/08/2012 08:20 10,4 C 88 % 1026,2 hPa 0,0 mm 0,4 km/h (0 Bft) N-NE 22 0 min 0 W/m 8,5 C 10,4 C 3,6 km/h (1 Bft)
31/08/2012 08:30 10,7 C 87 % 1026,2 hPa 0,0 mm 0,4 km/h (0 Bft) NO 315 0 min 0 W/m 8,6 C 10,7 C 0,4 km/h (0 Bft)
31/08/2012 08:40 10,9 C 88 % 1026,3 hPa 0,0 mm 1,4 km/h (1 Bft) NO 315 0 min 0 W/m 9,0 C 10,9 C 9,4 km/h (2 Bft)
31/08/2012 08:50 11,2 C 88 % 1026,3 hPa 0,0 mm 2,9 km/h (1 Bft) N-NO 337 0 min 0 W/m 9,3 C 11,2 C 4,3 km/h (1 Bft)
31/08/2012 09:00 11,4 C 87 % 1026,4 hPa 0,0 mm 2,2 km/h (1 Bft) N-NO 337 0 min 0 W/m 9,3 C 11,4 C 2,2 km/h (1 Bft)
31/08/2012 09:10 11,6 C 87 % 1026,4 hPa 0,0 mm 1,4 km/h (1 Bft) NE 45 0 min 0 W/m 9,5 C 11,6 C 1,4 km/h (1 Bft)
31/08/2012 09:20 11,8 C 86 % 1026,6 hPa 0,0 mm 0,4 km/h (0 Bft) N 360 0 min 0 W/m 9,5 C 11,8 C 3,6 km/h (1 Bft)
31/08/2012 09:30 12,0 C 86 % 1026,6 hPa 0,0 mm 0,7 km/h (0 Bft) N-NE 22 0 min 0 W/m 9,7 C 12,0 C 4,0 km/h (1 Bft)
31/08/2012 09:40 12,4 C 85 % 1026,8 hPa 0,0 mm 7,9 km/h (2 Bft) N 360 0 min 0 W/m 9,9 C 12,4 C 10,4 km/h (2 Bft)
31/08/2012 09:50 12,8 C 84 % 1026,9 hPa 0,0 mm 3,6 km/h (1 Bft) N-NE 22 0 min 0 W/m 10,2 C 12,8 C 4,0 km/h (1 Bft)
31/08/2012 10:00 13,1 C 83 % 1027,0 hPa 0,0 mm 5,0 km/h (1 Bft) N-NE 22 0 min 0 W/m 10,3 C 13,1 C 8,3 km/h (2 Bft)
31/08/2012 10:10 13,4 C 81 % 1027,1 hPa 0,0 mm 1,4 km/h (1 Bft) N 360 0 min 0 W/m 10,2 C 13,4 C 4,3 km/h (1 Bft)
31/08/2012 10:20 13,4 C 81 % 1027,1 hPa 0,0 mm 2,9 km/h (1 Bft) N-NE 22 0 min 0 W/m 10,2 C 13,4 C 2,9 km/h (1 Bft)
31/08/2012 10:30 13,5 C 80 % 1027,1 hPa 0,0 mm 1,1 km/h (1 Bft) E-NE 67 0 min 0 W/m 10,1 C 13,5 C 1,1 km/h (1 Bft)
31/08/2012 10:40 13,8 C 81 % 1027,2 hPa 0,0 mm 6,5 km/h (2 Bft) E-NE 67 0 min 0 W/m 10,6 C 13,8 C 7,6 km/h (2 Bft)
31/08/2012 10:50 14,8 C 77 % 1027,2 hPa 0,0 mm 3,2 km/h (1 Bft) N-NE 22 0 min 0 W/m 10,8 C 14,8 C 3,2 km/h (1 Bft)
31/08/2012 11:00 15,7 C 74 % 1027,1 hPa 0,0 mm 6,8 km/h (2 Bft) NE 45 0 min 0 W/m 11,1 C 15,7 C 11,9 km/h (2 Bft)
31/08/2012 11:10 16,5 C 72 % 1027,1 hPa 0,0 mm 7,6 km/h (2 Bft) N-NE 22 0 min 0 W/m 11,4 C 16,5 C 9,7 km/h (2 Bft)
31/08/2012 11:20 16,9 C 70 % 1027,1 hPa 0,0 mm 4,0 km/h (1 Bft) NE 45 0 min 0 W/m 11,4 C 16,9 C 7,2 km/h (2 Bft)
31/08/2012 11:30 17,6 C 66 % 1027,0 hPa 0,0 mm 0,4 km/h (0 Bft) N 360 0 min 0 W/m 11,2 C 17,6 C 2,9 km/h (1 Bft)
31/08/2012 11:40 17,9 C 64 % 1027,0 hPa 0,0 mm 4,0 km/h (1 Bft) N 360 0 min 0 W/m 11,0 C 17,9 C 8,6 km/h (2 Bft)
31/08/2012 11:50 18,3 C 63 % 1027,0 hPa 0,0 mm 0,4 km/h (0 Bft) E-NE 67 0 min 0 W/m 11,1 C 18,3 C 5,8 km/h (2 Bft)
31/08/2012 12:00 18,6 C 59 % 1027,0 hPa 0,0 mm 7,6 km/h (2 Bft) NO 315 0 min 0 W/m 10,4 C 18,6 C 7,6 km/h (2 Bft)
31/08/2012 12:10 19,4 C 56 % 1027,1 hPa 0,0 mm 3,6 km/h (1 Bft) O-NO 292 0 min 0 W/m 10,4 C 19,4 C 11,2 km/h (2 Bft)
31/08/2012 12:20 20,0 C 53 % 1027,1 hPa 0,0 mm 9,7 km/h (2 Bft) NE 45 0 min 0 W/m 10,1 C 20,0 C 16,6 km/h (3 Bft)
31/08/2012 12:30 20,3 C 51 % 1027,2 hPa 0,0 mm 7,9 km/h (2 Bft) N-NO 337 0 min 0 W/m 9,8 C 20,3 C 10,4 km/h (2 Bft)
31/08/2012 12:40 20,1 C 50 % 1027,1 hPa 0,0 mm 2,9 km/h (1 Bft) N-NO 337 0 min 0 W/m 9,3 C 20,1 C 9,7 km/h (2 Bft)
31/08/2012 12:50 20,1 C 49 % 1027,0 hPa 0,0 mm 10,8 km/h (2 Bft) N-NE 22 0 min 0 W/m 9,0 C 20,1 C 18,0 km/h (3 Bft)
31/08/2012 13:00 19,7 C 48 % 1027,1 hPa 0,0 mm 6,1 km/h (2 Bft) O-NO 292 0 min 0 W/m 8,4 C 19,7 C 10,4 km/h (2 Bft)
31/08/2012 13:10 19,6 C 48 % 1027,1 hPa 0,0 mm 6,1 km/h (2 Bft) N 360 0 min 0 W/m 8,3 C 19,6 C 12,6 km/h (3 Bft)
31/08/2012 13:20 19,5 C 47 % 1027,1 hPa 0,0 mm 9,0 km/h (2 Bft) NE 45 0 min 0 W/m 7,9 C 19,5 C 14,4 km/h (3 Bft)
31/08/2012 13:30 19,8 C 47 % 1027,0 hPa 0,0 mm 10,1 km/h (2 Bft) NO 315 0 min 0 W/m 8,2 C 19,8 C 12,6 km/h (3 Bft)
31/08/2012 13:40 20,0 C 45 % 1026,9 hPa 0,0 mm 7,2 km/h (2 Bft) N 360 0 min 0 W/m 7,7 C 20,0 C 7,2 km/h (2 Bft)
31/08/2012 13:50 20,4 C 45 % 1026,9 hPa 0,0 mm 7,6 km/h (2 Bft) E-NE 67 0 min 0 W/m 8,1 C 20,4 C 11,2 km/h (2 Bft)
31/08/2012 14:00 20,6 C 43 % 1027,1 hPa 0,0 mm 7,2 km/h (2 Bft) SO 225 0 min 0 W/m 7,6 C 20,6 C 14,0 km/h (3 Bft)
31/08/2012 14:10 20,6 C 44 % 1027,0 hPa 0,0 mm 7,9 km/h (2 Bft) N 360 0 min 0 W/m 7,9 C 20,6 C 7,9 km/h (2 Bft)
31/08/2012 14:20 20,6 C 42 % 1027,2 hPa 0,0 mm 14,4 km/h (3 Bft) O-NO 292 0 min 0 W/m 7,2 C 20,6 C 22,7 km/h (4 Bft)
31/08/2012 14:30 20,8 C 43 % 1027,3 hPa 0,0 mm 10,8 km/h (2 Bft) NO 315 0 min 0 W/m 7,8 C 20,8 C 16,9 km/h (3 Bft)
31/08/2012 14:40 20,7 C 42 % 1027,3 hPa 0,0 mm 6,8 km/h (2 Bft) O-NO 292 0 min 0 W/m 7,3 C 20,7 C 14,4 km/h (3 Bft)
31/08/2012 14:50 20,8 C 41 % 1027,2 hPa 0,0 mm 8,6 km/h (2 Bft) O-NO 292 0 min 0 W/m 7,1 C 20,8 C 16,2 km/h (3 Bft)
31/08/2012 15:00 20,9 C 40 % 1027,1 hPa 0,0 mm 6,8 km/h (2 Bft) O-NO 292 0 min 0 W/m 6,8 C 20,9 C 12,6 km/h (3 Bft)
31/08/2012 15:10 20,9 C 39 % 1027,2 hPa 0,0 mm 13,0 km/h (3 Bft) NE 45 0 min 0 W/m 6,4 C 20,9 C 19,8 km/h (3 Bft)
31/08/2012 15:20 20,8 C 39 % 1027,1 hPa 0,0 mm 8,6 km/h (2 Bft) O-NO 292 0 min 0 W/m 6,3 C 20,8 C 19,4 km/h (3 Bft)
31/08/2012 15:30 20,5 C 39 % 1027,0 hPa 0,0 mm 2,2 km/h (1 Bft) NO 315 0 min 0 W/m 6,1 C 20,5 C 3,2 km/h (1 Bft)
31/08/2012 15:40 20,6 C 39 % 1027,1 hPa 0,0 mm 9,0 km/h (2 Bft) N 360 0 min 0 W/m 6,2 C 20,6 C 14,8 km/h (3 Bft)
31/08/2012 15:50 20,6 C 38 % 1026,9 hPa 0,0 mm 4,0 km/h (1 Bft) N 360 0 min 0 W/m 5,8 C 20,6 C 7,2 km/h (2 Bft)
31/08/2012 16:00 20,7 C 38 % 1027,0 hPa 0,0 mm 4,3 km/h (1 Bft) NO 315 0 min 0 W/m 5,9 C 20,7 C 4,3 km/h (1 Bft)
31/08/2012 16:10 20,7 C 38 % 1027,0 hPa 0,0 mm 5,0 km/h (1 Bft) N-NE 22 0 min 0 W/m 5,9 C 20,7 C 5,0 km/h (1 Bft)
31/08/2012 16:20 20,8 C 36 % 1027,0 hPa 0,0 mm 6,5 km/h (2 Bft) N 360 0 min 0 W/m 5,2 C 20,8 C 9,7 km/h (2 Bft)
31/08/2012 16:30 20,8 C 36 % 1027,0 hPa 0,0 mm 5,4 km/h (2 Bft) N-NO 337 0 min 0 W/m 5,2 C 20,8 C 14,0 km/h (3 Bft)
31/08/2012 16:40 20,6 C 35 % 1026,9 hPa 0,0 mm 4,3 km/h (1 Bft) NO 315 0 min 0 W/m 4,6 C 20,6 C 13,7 km/h (3 Bft)
31/08/2012 16:50 20,6 C 35 % 1026,9 hPa 0,0 mm 5,4 km/h (2 Bft) E 90 0 min 0 W/m 4,6 C 20,6 C 9,0 km/h (2 Bft)
31/08/2012 17:00 20,6 C 33 % 1026,8 hPa 0,0 mm 9,0 km/h (2 Bft) N-NO 337 0 min 0 W/m 3,8 C 20,6 C 9,0 km/h (2 Bft)
31/08/2012 17:10 20,4 C 34 % 1026,8 hPa 0,0 mm 5,4 km/h (2 Bft) N-NO 337 0 min 0 W/m 4,0 C 20,4 C 15,8 km/h (3 Bft)
31/08/2012 17:20 20,4 C 34 % 1026,9 hPa 0,0 mm 6,5 km/h (2 Bft) NO 315 0 min 0 W/m 4,0 C 20,4 C 11,2 km/h (2 Bft)
31/08/2012 17:30 20,3 C 34 % 1026,9 hPa 0,0 mm 7,9 km/h (2 Bft) N-NE 22 0 min 0 W/m 3,9 C 20,3 C 13,3 km/h (3 Bft)
31/08/2012 17:40 20,3 C 34 % 1026,8 hPa 0,0 mm 8,6 km/h (2 Bft) NE 45 0 min 0 W/m 3,9 C 20,3 C 8,6 km/h (2 Bft)
31/08/2012 17:50 20,3 C 34 % 1026,7 hPa 0,0 mm 5,4 km/h (2 Bft) N-NE 22 0 min 0 W/m 3,9 C 20,3 C 18,4 km/h (3 Bft)
31/08/2012 18:00 20,3 C 34 % 1026,7 hPa 0,0 mm 1,4 km/h (1 Bft) N 360 0 min 0 W/m 3,9 C 20,3 C 3,2 km/h (1 Bft)
31/08/2012 18:10 20,3 C 34 % 1026,8 hPa 0,0 mm 5,8 km/h (2 Bft) N 360 0 min 0 W/m 3,9 C 20,3 C 10,4 km/h (2 Bft)
31/08/2012 18:20 20,3 C 34 % 1026,7 hPa 0,0 mm 1,1 km/h (1 Bft) N 360 0 min 0 W/m 3,9 C 20,3 C 3,2 km/h (1 Bft)
31/08/2012 18:30 20,3 C 34 % 1026,7 hPa 0,0 mm 8,6 km/h (2 Bft) N-NE 22 0 min 0 W/m 3,9 C 20,3 C 9,7 km/h (2 Bft)
31/08/2012 18:40 20,3 C 33 % 1026,7 hPa 0,0 mm 5,4 km/h (2 Bft) NO 315 0 min 0 W/m 3,5 C 20,3 C 5,4 km/h (2 Bft)
31/08/2012 18:50 20,1 C 33 % 1026,6 hPa 0,0 mm 3,6 km/h (1 Bft) NE 45 0 min 0 W/m 3,3 C 20,1 C 11,9 km/h (2 Bft)
31/08/2012 19:00 20,0 C 34 % 1026,6 hPa 0,0 mm 5,0 km/h (1 Bft) N 360 0 min 0 W/m 3,7 C 20,0 C 11,2 km/h (2 Bft)
31/08/2012 19:10 19,8 C 34 % 1026,5 hPa 0,0 mm 3,2 km/h (1 Bft) NO 315 0 min 0 W/m 3,5 C 19,8 C 10,1 km/h (2 Bft)
31/08/2012 19:20 19,6 C 34 % 1026,5 hPa 0,0 mm 3,2 km/h (1 Bft) N 360 0 min 0 W/m 3,3 C 19,6 C 6,5 km/h (2 Bft)
31/08/2012 19:30 19,3 C 35 % 1026,5 hPa 0,0 mm 4,7 km/h (1 Bft) NE 45 0 min 0 W/m 3,5 C 19,3 C 4,7 km/h (1 Bft)
31/08/2012 19:40 19,1 C 35 % 1026,5 hPa 0,0 mm 5,8 km/h (2 Bft) N 360 0 min 0 W/m 3,3 C 19,1 C 5,8 km/h (2 Bft)
31/08/2012 19:50 18,7 C 36 % 1026,6 hPa 0,0 mm 0,0 km/h (0 Bft) N-NO 337 0 min 0 W/m 3,3 C 18,7 C 0,0 km/h (0 Bft)
31/08/2012 20:00 17,9 C 37 % 1026,7 hPa 0,0 mm 4,0 km/h (1 Bft) NE 45 0 min 0 W/m 3,0 C 17,9 C 8,6 km/h (2 Bft)
31/08/2012 20:10 17,3 C 38 % 1026,5 hPa 0,0 mm 0,4 km/h (0 Bft) N 360 0 min 0 W/m 2,9 C 17,3 C 0,4 km/h (0 Bft)
31/08/2012 20:20 16,6 C 39 % 1026,4 hPa 0,0 mm 0,0 km/h (0 Bft) N 360 0 min 0 W/m 2,6 C 16,6 C 3,2 km/h (1 Bft)
31/08/2012 20:30 15,9 C 40 % 1026,3 hPa 0,0 mm 0,0 km/h (0 Bft) N-NE 22 0 min 0 W/m 2,3 C 15,9 C 0,0 km/h (0 Bft)
31/08/2012 20:40 15,4 C 41 % 1026,3 hPa 0,0 mm 0,4 km/h (0 Bft) N 360 0 min 0 W/m 2,2 C 15,4 C 3,2 km/h (1 Bft)
31/08/2012 20:50 14,8 C 43 % 1026,2 hPa 0,0 mm 0,0 km/h (0 Bft) N 360 0 min 0 W/m 2,3 C 14,8 C 2,9 km/h (1 Bft)
31/08/2012 21:00 14,1 C 44 % 1026,4 hPa 0,0 mm 0,0 km/h (0 Bft) N 360 0 min 0 W/m 2,0 C 14,1 C 0,0 km/h (0 Bft)
31/08/2012 21:10 13,5 C 46 % 1026,5 hPa 0,0 mm 0,7 km/h (0 Bft) N-NO 337 0 min 0 W/m 2,1 C 13,5 C 4,3 km/h (1 Bft)
31/08/2012 21:20 13,0 C 47 % 1026,5 hPa 0,0 mm 0,4 km/h (0 Bft) N-NO 337 0 min 0 W/m 2,0 C 13,0 C 4,0 km/h (1 Bft)
31/08/2012 21:30 12,6 C 47 % 1026,6 hPa 0,0 mm 0,0 km/h (0 Bft) N-NO 337 0 min 0 W/m 1,6 C 12,6 C 0,0 km/h (0 Bft)
31/08/2012 21:40 12,3 C 48 % 1026,7 hPa 0,0 mm 0,0 km/h (0 Bft) N 360 0 min 0 W/m 1,6 C 12,3 C 0,0 km/h (0 Bft)
31/08/2012 21:50 11,9 C 49 % 1026,7 hPa 0,0 mm 0,0 km/h (0 Bft) N 360 0 min 0 W/m 1,5 C 11,9 C 0,0 km/h (0 Bft)
31/08/2012 22:00 11,6 C 50 % 1026,8 hPa 0,0 mm 0,0 km/h (0 Bft) N 360 0 min 0 W/m 1,5 C 11,6 C 0,0 km/h (0 Bft)
31/08/2012 22:10 11,2 C 51 % 1027,0 hPa 0,0 mm 0,0 km/h (0 Bft) N-NE 22 0 min 0 W/m 1,4 C 11,2 C 0,0 km/h (0 Bft)
31/08/2012 22:20 10,9 C 52 % 1026,9 hPa 0,0 mm 0,0 km/h (0 Bft) N-NE 22 0 min 0 W/m 1,4 C 10,9 C 0,0 km/h (0 Bft)
31/08/2012 22:30 10,6 C 53 % 1026,9 hPa 0,0 mm 0,0 km/h (0 Bft) N-NE 22 0 min 0 W/m 1,4 C 10,6 C 0,0 km/h (0 Bft)
31/08/2012 22:40 10,3 C 54 % 1027,0 hPa 0,0 mm 0,0 km/h (0 Bft) N 360 0 min 0 W/m 1,4 C 10,3 C 0,0 km/h (0 Bft)
31/08/2012 22:50 10,2 C 56 % 1027,0 hPa 0,0 mm 0,0 km/h (0 Bft) N 360 0 min 0 W/m 1,8 C 10,2 C 2,9 km/h (1 Bft)
31/08/2012 23:00 10,0 C 56 % 1027,0 hPa 0,0 mm 0,0 km/h (0 Bft) N-NO 337 0 min 0 W/m 1,6 C 10,0 C 0,0 km/h (0 Bft)
31/08/2012 23:10 9,8 C 57 % 1026,9 hPa 0,0 mm 0,0 km/h (0 Bft) N-NO 337 0 min 0 W/m 1,7 C 9,8 C 0,0 km/h (0 Bft)
31/08/2012 23:20 9,8 C 57 % 1027,1 hPa 0,0 mm 0,0 km/h (0 Bft) N 360 0 min 0 W/m 1,7 C 9,8 C 0,0 km/h (0 Bft)
31/08/2012 23:30 9,6 C 57 % 1027,1 hPa 0,0 mm 0,0 km/h (0 Bft) N 360 0 min 0 W/m 1,5 C 9,6 C 0,0 km/h (0 Bft)
31/08/2012 23:40 9,4 C 59 % 1027,0 hPa 0,0 mm 0,0 km/h (0 Bft) N 360 0 min 0 W/m 1,8 C 9,4 C 0,0 km/h (0 Bft)
31/08/2012 23:50 9,4 C 60 % 1027,1 hPa 0,0 mm 0,0 km/h (0 Bft) N 360 0 min 0 W/m 2,0 C 9,4 C 0,0 km/h (0 Bft)
_ Min-Heure 07:40 18:50 00:00 - 23:50 - - - - 22:40 07:40 23:50
Minimum _ 9,3 C 33 % 1024,1 hPa - 0,0 km/h (0 Bft) - - - - 1,4 C 9,3 C 0,0 km/h (0 Bft)
_ Max-Heure 15:10 08:50 14:40 23:50 14:20 - - 23:50 23:50 11:10 15:10 14:20
Maximum _ 20,9 C 88 % 1027,3 hPa 0,0 mm 14,4 km/h
O-NO (3 Bft)
- - 0 min 0 W/m 11,4 C 20,9 C 22,7 km/h
O-NO (4 Bft)
Moyenne _ 15,0 C 61 % 1026,2 hPa #0,0 mm 2,8 km/h (1 Bft) N - #0 min. 0 W/m 6,8 C 15,0 C 5,3 km/h (1 Bft)
Saint Bonnet de Bellac- Haute Vienne - France